ELECTRON KICK STAGE R/B, 62086

Orbit data source: Space-Track

ELECTRON KICK STAGE R/B, 62086 is space debris in SSO originally from a launch on Mon, 25 Nov 2024 UTC launched from the Rocket Lab Launch Complex (RLLC). Debris objects in space refer to the collection of defunct objects orbiting the Earth. Examples of debris include non-operational satellites, rocket bodies, and fragments generated from explosions, collisions, or faulty payload assembly.

Loading next visibility...
Identifier
62086, 2024-219F
Orbit
SSO
Country
Flag of USUS
Related business
Manufacturer
Rocket Lab
Mission
Spacecraft
Bus & Motor
KICK STAGE, CURIE
Mass
~50 kg wet, ~50 kg dry
Launch date (UTC)
2024-11-25 (2 years ago)
Launch vehicle
Unknown
Launch site
Rocket Lab Launch Complex (RLLC)
Object type
Payload
Rocket body
Debris
Shape & HBR
Trunc Cone, 0.7 m
Radar Cross Section
0.760 m², Large (>1 m²)

Expand to show TLE details & history
Last TLE update: 12 hours ago

TLE from 12 hours ago
0 ELECTRON KICK STAGE R/B
1 62086U 24219F   26171.47024104  .00001681  00000-0  14833-3 0  9997
2 62086  97.9854 349.2331 0050364 303.3540  56.2865 14.96917313 85433
Epoch: 2026-06-20T11:17Z
TLE epoch observation values (Epoch: 2026-06-20T11:17:08.825Z)
Latitude
-0.00009°
Longitude
-88.73806°
Altitude
560.147 km
Speed
7.592 km/s
True Right ascension
23h 16m 55s
True Declination
0° 00' 00"
Sunlit
Object was in daylight at epoch
Visualization orbit readout
Latitude
Unknown
Longitude
Unknown
Altitude
Unknown
Speed
Unknown
Apparent Right ascension
Unknown
Apparent Declination
Unknown
Sunlit
N/A
Visualization observer readout
Local Sidereal Time
10:18:00
Azimuth
Unknown
Elevation
Unknown
Doppler factor
Unknown
Orbital elements
Apogee altitude
608.461 km
Perigee altitude
538.439 km
Semi-major axis
6,951.587 km
Eccentricity
0.00504
Inclination
97.9854°
RAAN
349.2331°
Arg. of periapsis
303.354°
True anomaly
56.76825°
Mean anomaly
56.2865°
Eccentric anomaly
56.52721°
Mean motion
3.7447 °/min
Orbital period
96.14 mins
BSTAR
0.00014833
Loading maneuver chart data...
Computing Atmospheric mass density...
Loading historical data...
Loading historical data...
Loading historical data...
Loading historical data...
Loading historical data...
Loading historical data...
Loading historical data...

Documentation

Showing up to 5 results
|